Location: Peebles
(55.6412°N, 3.1714°W)
Time: 17:37:44
(UTC+01:00)

Cosmos 1934 Rocket - Pass Details

Date: 30 January 2022
Orbit: 938 x 999 km, 83.0° (Epoch: 25 May)

Event Time Altitude Azimuth Distance (km) Brightness Sun altitude
Rises 06:28:31 0° 166° (SSE) 3,689 7.4 -14.1°
Reaches altitude 10° 06:31:08 10° 161° (SSE) 2,737 6.8 -13.8°
Maximum altitude 06:37:03 46° 90° (E) 1,291 5.2 -13.0°
Drops below altitude 10° 06:42:55 10° 20° (NNE) 2,715 6.4 -12.1°
Sets 06:45:30 0° 14° (NNE) 3,657 7.0 -11.8°
